Starlink 34431

operational
NORAD ID: 64353 Int'l Des: 2025-126 Owner: SPXS Country: US Constellation: starlink
LEOCIRCULAR

Über Starlink 34431

Beschreibung wird geladen...

Live-Position

3D-Globus wird geladen...

Nächste Überflüge

Höhenverlauf

Altitude vs Time

uPlot chart will show altitude changes over time

Zweizeiliger Elementsatz

1 64353U 25126K 25341.22344022 .00177591 00000-0 14400-1 0 9991
2 64353 70.0031 267.5058 0006189 316.3188 43.7481 14.98636786 26835
Epoch: 7. Dez. 2025 • Age: 17 hours

Aktueller Status

Höhe 579.0 km
Geschwindigkeit 7.57 km/s
Subsatellitenpunkt -35.71°S, 168.54°W
Startdatum 13. Juni 2025
Alter 0.4 years
Typ internet

Technische Details

Klassifizierung Payload
Masse 575.00 kg
Trockenmasse 530.00 kg
Gesamtmasse 575.00 kg
Länge 0.30 m
Durchmesser 4.10 m
Spannweite 29.00 m
Form Box + pan
Hersteller SPXS
Bus-Typ Starlink V2MO
Phasenstatus In Orbit
Besitzer/Staat SPXS/US

Große Konstellationen

Loading constellations...